This demonstration page uses our WeatherBlox Daily Observations layout. Learn more.

Left ArrowRight Arrow

Hourly Observations for August 15, 2022

Temp ( °F °C ) Dew Point ( °F °C ) Humidity (%) Winds ( mph kmh ) Pressure ( in mb ) Visibility ( mi km ) Precip ( " mm )
12:53 am 00:53 Clear 86 30 52 11.1 31 31 SE 15 24 29.79 1009 10 16 0.00 0.00
1:53 am 01:53 Clear 84 28.9 56 13.3 38 38 SE 14 22 29.80 1009 10 16 0.00 0.00
2:53 am 02:53 Clear 81 27.2 63 17.2 54 54 SSE 23 37 29.81 1009 10 16 0.00 0.00
3:53 am 03:53 Clear 78 25.6 63 17.2 60 60 SSE 14 22 29.81 1009 10 16 0.00 0.00
4:53 am 04:53 Clear 77 25 64 17.8 64 64 SE 13 20 29.80 1009 10 16 0.00 0.00
5:53 am 05:53 Clear 75 23.9 64 17.8 69 69 SE 7 11 29.82 1010 10 16 0.00 0.00
6:53 am 06:53 Clear 73 22.8 64 17.8 73 73 SE 6 9 29.83 1010 10 16 0.00 0.00
7:53 am 07:53 Sunny 74 23.3 64 17.8 71 71 SE 10 17 29.84 1011 10 16 0.00 0.00
8:53 am 08:53 Sunny 76 24.4 64 17.8 67 67 SE 12 19 29.86 1011 10 16 0.00 0.00
9:53 am 09:53 Sunny 77 25 64 17.8 64 64 SSE 14 22 29.88 1012 10 16 0.00 0.00
10:53 am 10:53 Sunny 81 27.2 63 17.2 54 54 SE 13 20 29.87 1012 10 16 0.00 0.00
11:53 am 11:53 Sunny 84 28.9 62 16.7 48 48 SE 14 22 29.87 1011 10 16 0.00 0.00
12:53 pm 12:53 Sunny 86 30 60 15.6 42 42 SE 10 17 29.85 1011 10 16 0.00 0.00
1:53 pm 13:53 Sunny 90 32.2 59 15 35 35 ESE 14 22 29.84 1010 10 16 0.00 0.00
2:53 pm 14:53 Sunny 87 30.6 61 16.1 42 42 E 10 17 29.84 1010 10 16 0.00 0.00
3:53 pm 15:53 Mostly Sunny 91 32.8 60 15.6 36 36 SE 14 22 29.81 1010 10 16 0.00 0.00
4:53 pm 16:53 Mostly Sunny 90 32.2 61 16.1 38 38 SE 16 26 29.79 1009 10 16 0.00 0.00
5:53 pm 17:53 Sunny 88 31.1 60 15.6 39 39 ESE 14 22 29.78 1008 10 16 0.00 0.00
6:53 pm 18:53 Mostly Sunny 89 31.7 58 14.4 35 35 SE 16 26 29.78 1008 10 16 0.00 0.00
7:53 pm 19:53 Sunny 87 30.6 58 14.4 37 37 ESE 13 20 29.78 1009 10 16 0.00 0.00
8:53 pm 20:53 Mostly Clear 85 29.4 59 15 42 42 SE 18 30 29.80 1009 10 16 0.00 0.00
9:53 pm 21:53 Clear 82 27.8 59 15 46 46 SE 18 30 29.83 1010 10 16 0.00 0.00
10:53 pm 22:53 Clear 79 26.1 59 15 50 50 SSE 22 35 29.86 1011 10 16 0.00 0.00
11:53 pm 23:53 Clear 76 24.4 61 16.1 60 60 SE 17 28 29.88 1012 10 16 0.00 0.00

Powered by AerisWeather